Regional Weather Roundup
Issued by NWS Northern Indiana

Home | Current Version | Previous Version | Text Only | Print | Product List | Glossary On
Versions: 1 2 3 4 5 6 7 8 9 10 11 12 13 14 15 16 17 18 19 20 21 22 23 24 25 26 27 28 29 30 31 32 33 34 35 36 37 38 39 40 41 42 43 44 45 46 47 48 49 50
000
ASUS43 KIWX 010610
RWRIWX

KIWX WEATHER ROUNDUP
NATIONAL WEATHER SERVICE NORTHERN INDIANA
200 AM EDT WED OCT 01 2014

NOTE: "FAIR" INDICATES FEW OR NO CLOUDS BELOW 12,000 FEET WITH NO
SIGNIFICANT WEATHER AND/OR OBSTRUCTIONS TO VISIBILITY.

* THESE STATIONS ARE NOT UNDER NWS QUALITY CONTROL. THEY ALSO MAY NOT
  REPORT WEATHER SUCH AS PRECIPITATION OR FOG.

INZ001>027-010700-
NORTHERN INDIANA

CITY           SKY/WX    TMP DP  RH WIND       PRES   REMARKS
GARY*          MOCLDY    53  46  78 E5        30.02F
VALPARAISO     PTCLDY    46  44  93 NE3       30.02F
6HR MIN TEMP:  46; 6HR MAX TEMP:  53;

MICHIGAN CITY* CLOUDY    48  48 100 CALM      30.03S
LAPORTE*       PTCLDY    47  47 100 CALM      30.03S
6HR MIN TEMP:  47; 6HR MAX TEMP:  55;

KNOX*          PTCLDY    43  41  93 CALM      30.01F
6HR MIN TEMP:  40; 6HR MAX TEMP:  81;

SOUTH BEND     NOT AVBL
MONTICELLO*    CLEAR     45  45  98 E3        30.00F
6HR MIN TEMP:  45; 6HR MAX TEMP:  54;

LOGANSPORT*    CLEAR     41  39  93 CALM      30.02S
ROCHESTER*     PTCLDY    46  46 100 CALM      30.02S
WARSAW*        CLOUDY    54  46  76 E6        30.02F
ANGOLA*        CLOUDY    52  48  87 E3        30.04R
FORT WAYNE     PTCLDY    52  47  83 E3        30.03R
6HR MIN TEMP:  52; 6HR MAX TEMP:  55;

HUNTINGTON*    CLOUDY    50  47  91 CALM      30.02S
6HR MIN TEMP:  47; 6HR MAX TEMP:  51;

PERU/GRISSOM   CLEAR     45  45 100 E2        30.01S
6HR MIN TEMP:  44; 6HR MAX TEMP:  53;

MARION*        CLEAR     43  42  98 CALM      30.01F FOG
6HR MIN TEMP:  40; 6HR MAX TEMP:  90;


$$
INZ028>050-010700-
CENTRAL INDIANA

CITY           SKY/WX    TMP DP  RH WIND       PRES   REMARKS
LAFAYETTE      CLEAR     48  46  93 E8        30.00F
6HR MIN TEMP:  46; 6HR MAX TEMP:  58;

KOKOMO*        CLEAR     45  43  93 CALM      30.02S VSB 1
6HR MIN TEMP:  43; 6HR MAX TEMP:  54;

MUNCIE*        CLEAR     44  43  96 CALM      30.01S FOG
6HR MIN TEMP:  42; 6HR MAX TEMP:  54;

INDIANAPOLIS   CLEAR     53  46  77 E8        29.99S
6HR MIN TEMP:  52; 6HR MAX TEMP:  64;


$$
MIZ043>046-050>051-056>058-064>065-071>073-077>080-010700-
SOUTHWEST LOWER MICHIGAN

CITY           SKY/WX    TMP DP  RH WIND       PRES   REMARKS
BATTLE CREEK   CLOUDY    52  46  80 VRB3      30.05R
6HR MIN TEMP:  52; 6HR MAX TEMP:  56;

COLDWATER*     CLOUDY    54  50  87 E7        30.04S
6HR MIN TEMP:  54; 6HR MAX TEMP:  56;

HILLSDALE*     CLOUDY    51  51  99 CALM      30.04S
6HR MIN TEMP:  51; 6HR MAX TEMP:  55;

HOLLAND        CLOUDY    55  49  80 E5        30.06R
6HR MIN TEMP:  54; 6HR MAX TEMP:  56;

GRAND RAPIDS   CLOUDY    53  50  89 CALM      30.05F
6HR MIN TEMP:  53; 6HR MAX TEMP:  55;

KALAMAZOO      CLOUDY    53  49  86 CALM      30.05R
6HR MIN TEMP:  53; 6HR MAX TEMP:  55;

STURGIS*       CLOUDY    54  48  82 E6        30.03S
THREE RIVERS*  CLOUDY    54  51  87 NE5       30.04S

$$
OHZ001>008-015>018-024>025-010700-
NORTHWEST OHIO

CITY           SKY/WX    TMP DP  RH WIND       PRES   REMARKS
WAUSEON*       MOCLDY    45  45 100 CALM      30.04S
DEFIANCE       CLOUDY    52  48  86 NE3       30.05R
6HR MIN TEMP:  48; 6HR MAX TEMP:  57;

FINDLAY        CLOUDY    55  50  83 N10       30.02R
6HR MIN TEMP:  54; 6HR MAX TEMP:  58;

TOLEDO EXPRESS CLEAR     48  46  93 W3        30.03R
6HR MIN TEMP:  48; 6HR MAX TEMP:  56;

TOLEDO METCALF CLOUDY    51  47  86 NW5       30.04R
6HR MIN TEMP:  51; 6HR MAX TEMP:  58;

LIMA           CLOUDY    51  48  89 NE3       30.02S
6HR MIN TEMP:  47; 6HR MAX TEMP:  57;


$$
AND FOR LAKE MICHIGAN COASTAL AND OPEN LAKE BUOY OBSERVATIONS

STATION/POSITION TEMP    WIND        PRES    VSBY  WAVE
                 AIR SEA DIR/SP/G                  HT/PER
                 (F)     (DEG/KT/KT) (MB)    (MI)  (FT/S)
CALUMET HARBOR    56      80/  7/ 11 1015.2R
MICHIGAN CITY     54      50/  5/  6   N/A
SAINT JOSEPH      54      CALM  /  1 1017.9R
SOUTH LAKE BUOY   57 61  130/  8/ 12 1017.2F         2/ 6
4 MI NW BRIDGMAN  56 62   70/  6/ 10   N/A           2/ 2
MICHIGAN CITY     56 64  110/  8/ 10   N/A           2/ 2

$$
&&


USA.gov is the U.S. government's official web portal to all federal, state and local government web resources and services.